[[{"header":{"parameterUnit":"m.s-1","parameterCategory":2,"la1":30.2991,"la2":30.254,"lo1":-89.0895,"lo2":-89.0444,"dy":0.0017,"dx":0.0017,"nx":28,"ny":28,"refTime":"2025-07-09T03:00:00:Z","depth":"0","parameterNumber":2,"parameterNumberName":"U-component_of_CURRENTS"},"data":[0,0,0,0,0,0,0,0,0,0,0,0,0,0,0,0,0,0,0,0,0,0,0,0,0,0,0,0,0,0,0,0,0,0,0,0,0,0,0,0,0,0,0,0,0,0,0,0,0,0,0,0,0,0,0,0,0,0,0.3681,0.3682,0,0.3739,0.374,0.3741,0.3724,0.3722,0.3721,0.3719,0.3799,0.3802,0.3806,0,0,0,0,0,0,0,0,0,0,0,0,0,0.3651,0.3652,0.3681,0.3682,0.3682,0.3739,0.374,0.3741,0.3724,0.3722,0.372,0.3719,0.3798,0.3802,0.3806,0,0,0,0,0,0,0,0,0,0,0,0,0,0.3684,0.3652,0.3681,0.3679,0.3679,0.3739,0.374,0.3742,0.3724,0.3722,0.372,0.3718,0.3796,0.3801,0.3806,0.3881,0,0,0.3822,0.3824,0,0,0,0,0,0,0,0,0.3682,0.3686,0.3679,0.3679,0.368,0.372,0.3759,0.3788,0.3725,0.3709,0.3719,0.3717,0.3775,0.3782,0.38,0.3884,0.3888,0.3823,0.3826,0.3828,0.3829,0,0,0,0,0,0,0,0.368,0.3684,0.3707,0.368,0.368,0.3708,0.371,0.3765,0.3755,0.3711,0.3709,0.3713,0.3775,0.3795,0.3802,0.3889,0.3823,0.3827,0.383,0.3832,0.4119,0.4123,0,0,0,0,0,0,0.3666,0.3681,0.3705,0.3708,0.3673,0.371,0.3712,0.3711,0.3754,0.3758,0.3714,0.3712,0.3787,0.3796,0.3804,0.3973,0.3828,0.3833,0.3836,0.4114,0.412,0.4125,0,0,0,0,0,0,0.3665,0.3667,0.3702,0.3694,0.37,0.3711,0.3712,0.3713,0.3729,0.3756,0.376,0.3727,0.3786,0.3797,0.3879,0.3973,0.3835,0.384,0.4109,0.4116,0.4122,0.426,0,0,0,0,0,0,0.3664,0.3667,0.367,0.3693,0.37,0.3757,0.3714,0.3716,0.3733,0.373,0.3769,0.3774,0.3785,0.3872,0.3884,0.3977,0.3844,0.4103,0.4112,0.412,0.425,0.4271,0.4289,0,0,0,0,0,0.3663,0.3673,0.367,0.3673,0.3701,0.3759,0.3767,0.3768,0.3736,0.3769,0.3796,0.3773,0.3935,0.3879,0.3893,0.399,0.4099,0.4109,0.4119,0.4241,0.4267,0.4289,0,0,0,0,0,0,0.366,0.3673,0.367,0.3682,0.3726,0.3755,0.3777,0.3775,0.3822,0.3815,0.3824,0.3835,0.3953,0.395,0.3889,0.41,0.4017,0.403,0.4106,0.413,0.4149,0.416,0.3848,0,0,0,0,0,0.3663,0.3671,0.3703,0.3717,0.3736,0.3758,0.3779,0.3789,0.3826,0.3841,0.3875,0.3925,0.4011,0.4045,0.4114,0.4217,0.4204,0.4292,0.4311,0.4327,0.4349,0.4423,0.445,0.4158,0.4158,0.4158,0,0,0.3663,0.3673,0.3676,0.3718,0.3743,0.381,0.3766,0.3811,0.3886,0.3848,0.3957,0.3998,0.4056,0.4187,0.4238,0.4189,0.44,0.434,0.4354,0.4367,0.4437,0.4465,0.449,0.4165,0.4164,0.4163,0,0,0.368,0.3683,0.3704,0.3756,0.3806,0.3842,0.3856,0.3909,0.3951,0.406,0.407,0.4162,0.4265,0.4343,0.439,0.4557,0.4508,0.4578,0.468,0.4753,0.4777,0.4798,0.4789,0.4808,0.4579,0.4579,0.4579,0,0.368,0.3715,0.3726,0.3784,0.3835,0.386,0.393,0.4,0.4081,0.4144,0.4113,0.4314,0.4355,0.4532,0.4598,0.4606,0.4599,0.4581,0.4776,0.4797,0.4816,0.4802,0.4822,0.4587,0.4586,0.4585,0.4585,0,0.3729,0.3774,0.38,0.3882,0.3948,0.4014,0.4109,0.4191,0.4236,0.4307,0.4477,0.4541,0.4652,0.4699,0.4704,0.4883,0.4817,0.4794,0.4707,0.4853,0.4829,0.4847,0.4598,0.4596,0.4593,0.4591,0,0,0.3684,0.3806,0.3817,0.3879,0.4007,0.4065,0.4218,0.4363,0.4459,0.4569,0.4698,0.4874,0.4885,0.4941,0.4964,0.5036,0.5161,0.4977,0.4977,0.4951,0.5265,0.5037,0.5032,0.5164,0.5169,0.5173,0.5182,0,0.3721,0.3835,0.3895,0.4035,0.4113,0.4213,0.4349,0.4492,0.4609,0.4748,0.4858,0.4989,0.4987,0.5033,0.5123,0.5157,0.522,0.5158,0.5143,0.5142,0.4908,0.5051,0.4885,0.4864,0.5198,0.5201,0.5203,0,0.3745,0.3831,0.395,0.4121,0.416,0.4248,0.4456,0.4582,0.4798,0.4894,0.5048,0.5113,0.5276,0.5222,0.537,0.5324,0.5322,0.5326,0.5326,0.508,0.4949,0.4782,0.4882,0.4836,0.5229,0.5227,0.5225,0,0.3699,0.3868,0.3956,0.4019,0.4213,0.4289,0.4399,0.4616,0.4745,0.4972,0.506,0.5257,0.5317,0.5405,0.5424,0.5411,0.5523,0.5493,0.5286,0.5265,0.5105,0.5062,0.5146,0.5602,0.5602,0.5602,0.5602,0,0.3705,0.3782,0.3934,0.3986,0.4118,0.4258,0.4413,0.4565,0.4781,0.4912,0.5102,0.5206,0.5367,0.5439,0.5467,0.541,0.5557,0.5329,0.5279,0.5142,0.5104,0.5034,0.5008,0.5602,0.5602,0.5602,0.5602,0,0.3631,0.3723,0.3842,0.403,0.4085,0.4174,0.4394,0.4509,0.4715,0.4881,0.4948,0.5187,0.5252,0.5352,0.5455,0.5403,0.5264,0.5347,0.5126,0.5049,0.4755,0.474,0.4532,0.4415,0.5123,0.5118,0.5113,0,0.3601,0.3646,0.3831,0.3891,0.3964,0.4115,0.4208,0.4449,0.4568,0.4836,0.4888,0.5029,0.5077,0.5132,0.5111,0.5093,0.5046,0.4895,0.485,0.4735,0.4687,0.4529,0.4439,0.4695,0.4687,0.4681,0.4676,0,0.3563,0.3609,0.371,0.3823,0.3909,0.4014,0.4158,0.4247,0.4486,0.4587,0.469,0.4746,0.4812,0.4728,0.4709,0.4691,0.4679,0.4756,0.4757,0.4455,0.4179,0.404,0.4645,0.4622,0.4627,0.4631,0.4634,0.4636,0.3521,0.3567,0.3668,0.3755,0.3838,0.3863,0.3869,0.4002,0.4085,0.4177,0.4369,0.4351,0.4458,0.4396,0.4344,0.421,0.4209,0.4134,0.4152,0.4023,0.383,0.4246,0.408,0.4082,0.4084,0.4086,0.4088,0,0.3463,0.3506,0.3595,0.365,0.3636,0.3721,0.3783,0.3729,0.3677,0.3839,0.3861,0.3913,0.3853,0.3932,0.3882,0.3727,0.3595,0.3637,0.3497,0.3462,0.3968,0.3874,0.3511,0.3511,0.3511,0.3511,0.3511,0.3511,0.3433,0.3456,0.3482,0.3412,0.3422,0.3301,0.3266,0.32,0.3256,0.3217,0.3239,0.3355,0.363,0.3699,0.3592,0.3489,0.3324,0.3071,0.3112,0.3622,0.3674,0.3724,0.3637,0.3229,0.3229,0.2498,0.2493,0.2489]},{"header":{"parameterUnit":"m.s-1","parameterCategory":2,"la1":30.2991,"la2":30.254,"lo1":-89.0895,"lo2":-89.0444,"dy":0.0017,"dx":0.0017,"nx":28,"ny":28,"refTime":"2025-07-09T03:00:00:Z","depth":"0","parameterNumber":3,"parameterNumberName":"V-component_of_CURRENTS"},"data":[0,0,0,0,0,0,0,0,0,0,0,0,0,0,0,0,0,0,0,0,0,0,0,0,0,0,0,0,0,0,0,0,0,0,0,0,0,0,0,0,0,0,0,0,0,0,0,0,0,0,0,0,0,0,0,0,0,0,0.0183,0.0183,0,0.0141,0.014,0.014,0.0103,0.0102,0.0102,0.0101,0.0055,0.0055,0.0054,0,0,0,0,0,0,0,0,0,0,0,0,0,0.0216,0.0216,0.0183,0.0183,0.0182,0.0141,0.014,0.014,0.0103,0.0102,0.0102,0.0101,0.0056,0.0055,0.0054,0,0,0,0,0,0,0,0,0,0,0,0,0,0.0191,0.0216,0.0183,0.0158,0.0156,0.0141,0.014,0.014,0.0103,0.0102,0.0102,0.0101,0.0056,0.0055,0.0054,0.0061,0,0,0.005,0.005,0,0,0,0,0,0,0,0,0.0193,0.019,0.0163,0.016,0.0157,0.0126,0.0135,0.0113,0.0103,0.0124,0.0101,0.0101,0.0079,0.0076,0.007,0.0059,0.0057,0.005,0.0049,0.0049,0.0048,0,0,0,0,0,0,0,0.0194,0.0191,0.0167,0.0162,0.0159,0.0144,0.014,0.0131,0.0106,0.0122,0.0119,0.0114,0.0077,0.0071,0.0069,0.0056,0.005,0.0049,0.0048,0.0048,0.0069,0.007,0,0,0,0,0,0,0.02,0.0193,0.0168,0.0166,0.0173,0.0144,0.0139,0.0137,0.0106,0.0101,0.0114,0.0112,0.0074,0.007,0.0067,0.011,0.0049,0.0048,0.0047,0.0068,0.0069,0.0071,0,0,0,0,0,0,0.0201,0.0199,0.017,0.0178,0.0173,0.0144,0.0142,0.0137,0.013,0.01,0.0095,0.0113,0.0073,0.0069,0.0067,0.0106,0.0047,0.0046,0.0066,0.0068,0.007,0.0172,0,0,0,0,0,0,0.0202,0.0199,0.0202,0.0178,0.0173,0.0173,0.0142,0.0136,0.0128,0.0124,0.0098,0.0092,0.0072,0.0069,0.0066,0.0104,0.0045,0.0065,0.0067,0.0069,0.0167,0.0177,0.0186,0,0,0,0,0,0.0204,0.0215,0.0202,0.0199,0.0177,0.0174,0.0171,0.0147,0.0128,0.0136,0.0116,0.0093,0.0082,0.0069,0.0065,0.0103,0.0064,0.0067,0.0069,0.0163,0.0175,0.0186,0,0,0,0,0,0,0.0232,0.0212,0.0197,0.0202,0.0192,0.0168,0.0171,0.0152,0.0142,0.0138,0.0105,0.0099,0.0115,0.0091,0.0077,0.0116,0.0071,0.0073,0.0144,0.0155,0.0164,0.0214,0.0044,0,0,0,0,0,0.024,0.0242,0.0221,0.0226,0.0222,0.0197,0.0191,0.0178,0.0163,0.0157,0.014,0.0125,0.0125,0.0124,0.0116,0.0134,0.0113,0.0156,0.0166,0.0174,0.0211,0.0211,0.0224,0.008,0.008,0.008,0,0,0.0251,0.0241,0.0241,0.0232,0.022,0.0242,0.0192,0.0194,0.022,0.0155,0.0183,0.0156,0.0136,0.016,0.0165,0.0144,0.0197,0.0178,0.0185,0.0219,0.0215,0.0229,0.0242,0.0082,0.0082,0.0081,0,0,0.0287,0.0268,0.0287,0.0288,0.028,0.0272,0.0276,0.0259,0.0258,0.0273,0.0241,0.0246,0.023,0.024,0.0238,0.0296,0.0245,0.0279,0.0372,0.037,0.0383,0.0394,0.0356,0.0363,0.0286,0.0286,0.0287,0,0.0303,0.0328,0.0294,0.0321,0.034,0.0294,0.0337,0.0332,0.032,0.0344,0.0296,0.0316,0.0282,0.0344,0.0355,0.0323,0.0293,0.033,0.0385,0.0395,0.0404,0.0364,0.037,0.0292,0.0291,0.029,0.029,0,0.0361,0.0385,0.0399,0.0425,0.0439,0.0466,0.0461,0.0477,0.0463,0.0465,0.0508,0.0464,0.0488,0.0465,0.0423,0.0484,0.0429,0.0394,0.036,0.0425,0.0377,0.0382,0.0299,0.0297,0.0296,0.0294,0,0,0.0397,0.0435,0.0442,0.049,0.0502,0.0532,0.0576,0.0624,0.0686,0.0654,0.0736,0.071,0.0687,0.0685,0.0635,0.0622,0.063,0.0537,0.0534,0.0509,0.0597,0.0512,0.0507,0.0595,0.0598,0.0599,0.0527,0,0.046,0.0545,0.0544,0.0645,0.0698,0.0692,0.075,0.0785,0.0801,0.0863,0.0831,0.0877,0.0771,0.0787,0.0761,0.0671,0.0652,0.0652,0.0533,0.053,0.0453,0.0514,0.0532,0.0466,0.0531,0.0532,0.0532,0,0.0525,0.0582,0.0683,0.0788,0.0812,0.0863,0.0976,0.1025,0.1082,0.1098,0.113,0.1094,0.1093,0.0984,0.0884,0.0881,0.0762,0.0672,0.0667,0.0567,0.0455,0.0416,0.0471,0.0342,0.0538,0.0538,0.0537,0,0.0589,0.069,0.0783,0.0814,0.0909,0.097,0.1028,0.1101,0.1189,0.126,0.1323,0.1297,0.1298,0.1166,0.0958,0.0927,0.082,0.0756,0.0572,0.0562,0.0549,0.0535,0.0482,0.0705,0.0705,0.0705,0.0706,0,0.0666,0.0746,0.0826,0.088,0.103,0.1061,0.1224,0.1273,0.1382,0.1511,0.1455,0.1531,0.1342,0.1244,0.1038,0.0816,0.0881,0.0615,0.0557,0.0578,0.0568,0.043,0.0314,0.0703,0.0703,0.0704,0.0704,0,0.0722,0.076,0.0889,0.1008,0.106,0.1172,0.1352,0.1479,0.1544,0.171,0.1743,0.172,0.1579,0.1355,0.1132,0.0926,0.0614,0.0619,0.0633,0.0578,0.0276,0.0163,0.0013,-0.0062,0.0424,0.0422,0.042,0,0.0757,0.082,0.0983,0.1082,0.1142,0.1311,0.1439,0.1555,0.1697,0.1824,0.1916,0.1835,0.1789,0.1416,0.1058,0.0707,0.0541,0.0483,0.0439,0.0288,0.0121,0.005,-0.0005,0.0445,0.0443,0.0442,0.0441,0,0.0839,0.0884,0.0998,0.1192,0.1343,0.1525,0.1708,0.1839,0.198,0.2089,0.2177,0.2138,0.1795,0.1456,0.0975,0.072,0.0376,0.0443,0.0315,0.0166,0.0064,-0.0045,0.0429,0.043,0.0431,0.0432,0.0433,0.0433,0.0906,0.1002,0.1143,0.1337,0.1506,0.1703,0.1853,0.2031,0.2223,0.2382,0.2344,0.232,0.1866,0.1212,0.0852,0.0278,0.0253,0.0119,0.0001,-0.0049,-0.0131,0.0293,0.0206,0.0206,0.0205,0.0205,0.0205,0,0.0997,0.1106,0.1284,0.1507,0.1687,0.1757,0.2015,0.2155,0.2346,0.2494,0.2537,0.2329,0.1736,0.1168,0.0372,-0.0044,-0.0175,-0.0265,-0.0317,-0.0349,0.0073,0.0068,-0.0084,-0.0084,-0.0083,-0.0083,-0.0083,-0.0083,0.1052,0.122,0.1311,0.161,0.176,0.1987,0.2117,0.2298,0.2454,0.2609,0.264,0.2641,0.2237,0.077,-0.0148,-0.0374,-0.0623,-0.0731,-0.0857,-0.0529,-0.0499,-0.0471,-0.0495,-0.0763,-0.0764,-0.1172,-0.1177,-0.118]}],[{"header":{"parameterUnit":"m.s-1","parameterCategory":2,"la1":30.2991,"la2":30.254,"lo1":-89.0895,"lo2":-89.0444,"dy":0.0017,"dx":0.0017,"nx":28,"ny":28,"refTime":"2025-07-09T03:00:00:Z","depth":"2","parameterNumber":2,"parameterNumberName":"U-component_of_CURRENTS"},"data":[0,0,0,0,0,0,0,0,0,0,0,0,0,0,0,0,0,0,0,0,0,0,0,0,0,0,0,0,0,0,0,0,0,0,0,0,0,0,0,0,0,0,0,0,0,0,0,0,0,0,0,0,0,0,0,0,0,0,0.3401,0.3401,0,0.3431,0.3432,0.3432,0.3422,0.3421,0.3421,0.342,0.3479,0.3481,0.3483,0,0,0,0,0,0,0,0,0,0,0,0,0,0.3374,0.3374,0.3401,0.3401,0.3402,0.3431,0.3432,0.3432,0.3422,0.3421,0.3421,0.342,0.3478,0.3481,0.3483,0,0,0,0,0,0,0,0,0,0,0,0,0,0.3391,0.3374,0.3401,0.3402,0.3402,0.3431,0.3432,0.3432,0.3422,0.3421,0.342,0.342,0.3477,0.348,0.3483,0.3518,0,0,0.3493,0.3494,0,0,0,0,0,0,0,0,0.339,0.3392,0.3401,0.3402,0.3402,0.3423,0.3444,0.3463,0.3422,0.3413,0.342,0.3419,0.3465,0.3469,0.3473,0.352,0.3523,0.3493,0.3495,0.3496,0.3497,0,0,0,0,0,0,0,0.3389,0.3391,0.3411,0.3402,0.3402,0.3414,0.3415,0.3447,0.3442,0.3413,0.3413,0.342,0.3465,0.347,0.3475,0.3524,0.3493,0.3496,0.3498,0.3499,0.3675,0.3678,0,0,0,0,0,0,0.3387,0.339,0.341,0.3412,0.3396,0.3415,0.3417,0.3416,0.3441,0.3444,0.342,0.3419,0.3466,0.3471,0.3477,0.3609,0.3496,0.3499,0.3501,0.3673,0.3676,0.3679,0,0,0,0,0,0,0.3387,0.3389,0.3409,0.3403,0.3407,0.3417,0.3416,0.3417,0.3429,0.3446,0.3449,0.3431,0.3465,0.3473,0.3528,0.3607,0.35,0.3503,0.3669,0.3674,0.3678,0.3815,0,0,0,0,0,0,0.3386,0.3388,0.3394,0.3403,0.3407,0.3437,0.3417,0.3418,0.3434,0.3433,0.3457,0.3461,0.3465,0.3524,0.3531,0.361,0.3506,0.3666,0.3671,0.3676,0.3807,0.3824,0.3838,0,0,0,0,0,0.3384,0.3395,0.3394,0.3397,0.3413,0.3439,0.3442,0.3445,0.3436,0.3451,0.3475,0.3461,0.3563,0.3528,0.3536,0.3618,0.3663,0.367,0.3676,0.38,0.382,0.3838,0,0,0,0,0,0,0.3387,0.3396,0.3394,0.3407,0.3427,0.3438,0.3454,0.3454,0.3482,0.3489,0.3492,0.35,0.3581,0.3574,0.3535,0.3683,0.3613,0.3622,0.3705,0.3724,0.3739,0.3779,0.3508,0,0,0,0,0,0.3391,0.3399,0.3414,0.3426,0.3438,0.3448,0.346,0.3468,0.3491,0.3501,0.3524,0.3559,0.3615,0.3645,0.368,0.3757,0.3748,0.3815,0.3831,0.3844,0.3882,0.394,0.3965,0.37,0.37,0.37,0,0,0.3393,0.3401,0.3405,0.3427,0.3441,0.3483,0.3453,0.3484,0.354,0.3507,0.3591,0.3611,0.3644,0.3738,0.3774,0.3743,0.3906,0.3852,0.3864,0.3895,0.395,0.3976,0.3999,0.3705,0.3704,0.3703,0,0,0.3408,0.3414,0.3429,0.3457,0.349,0.3512,0.3524,0.3555,0.359,0.3663,0.3671,0.3753,0.38,0.3875,0.391,0.4034,0.3981,0.4021,0.4145,0.4201,0.4224,0.4244,0.4226,0.4243,0.4036,0.4036,0.4037,0,0.3412,0.3436,0.3441,0.3477,0.3514,0.3529,0.3577,0.3627,0.3679,0.3732,0.3707,0.3843,0.3889,0.4028,0.4092,0.4079,0.4053,0.4071,0.4223,0.4243,0.4261,0.4238,0.4255,0.4044,0.4043,0.4042,0.4041,0,0.3443,0.3476,0.3494,0.3549,0.3592,0.3636,0.3706,0.3766,0.3807,0.3861,0.3988,0.4046,0.4126,0.4167,0.4183,0.4343,0.4259,0.4229,0.4177,0.4296,0.4263,0.4278,0.4054,0.4052,0.4049,0.4048,0,0,0.3415,0.3498,0.3506,0.3547,0.3638,0.3671,0.3793,0.3903,0.3981,0.4062,0.4166,0.4324,0.4338,0.4383,0.4404,0.4492,0.4617,0.443,0.4429,0.4413,0.4673,0.4497,0.4495,0.4591,0.4595,0.4599,0.4584,0,0.344,0.3507,0.3561,0.3655,0.37,0.3782,0.3888,0.3999,0.4089,0.4195,0.4305,0.441,0.4421,0.4466,0.4561,0.4614,0.467,0.4621,0.4561,0.4559,0.439,0.4514,0.4183,0.4132,0.4598,0.4601,0.4603,0,0.3451,0.35,0.3583,0.3705,0.3735,0.3801,0.3959,0.4066,0.424,0.4311,0.4435,0.449,0.4677,0.4633,0.4787,0.4737,0.4732,0.4749,0.4747,0.4556,0.4415,0.4097,0.4142,0.4628,0.4626,0.4624,0.4622,0,0.3402,0.3518,0.3583,0.3625,0.3767,0.3831,0.3922,0.4093,0.4231,0.4388,0.447,0.4628,0.4705,0.4779,0.4831,0.4817,0.4926,0.4896,0.4714,0.4697,0.4397,0.4346,0.4982,0.4982,0.4982,0.4982,0.4982,0,0.3398,0.3449,0.3558,0.3589,0.3694,0.3802,0.3935,0.4054,0.4259,0.4383,0.4518,0.4593,0.475,0.4817,0.485,0.482,0.4931,0.4769,0.4712,0.4427,0.4382,0.4801,0.4781,0.4981,0.4981,0.4981,0.4981,0,0.3331,0.3404,0.3486,0.3621,0.3668,0.3743,0.3957,0.4043,0.4239,0.4395,0.4461,0.4635,0.4685,0.4775,0.4864,0.4813,0.4827,0.4761,0.4381,0.4282,0.4549,0.4536,0.4603,0.4597,0.4592,0.4588,0.4585,0,0.3303,0.3333,0.3477,0.3532,0.3592,0.3714,0.3781,0.4008,0.4105,0.4369,0.441,0.4548,0.455,0.4604,0.456,0.4547,0.467,0.4191,0.4152,0.4589,0.4526,0.452,0.4514,0.3784,0.3774,0.3767,0.376,0,0.3259,0.3307,0.3372,0.3463,0.3533,0.3622,0.3732,0.3824,0.404,0.416,0.4248,0.4301,0.4322,0.4143,0.4123,0.4076,0.4189,0.4027,0.4607,0.3931,0.3816,0.3755,0.3776,0.369,0.3697,0.3702,0.3706,0.3709,0.322,0.3242,0.331,0.3381,0.3459,0.3475,0.3466,0.3567,0.3676,0.378,0.3934,0.3863,0.3894,0.3691,0.3562,0.3465,0.3767,0.3617,0.3643,0.3676,0.3585,0.3468,0.3255,0.3259,0.3263,0.3266,0.3269,0,0.3152,0.3161,0.322,0.3253,0.3238,0.3339,0.338,0.3315,0.3276,0.3405,0.3442,0.316,0.3043,0.3075,0.2828,0.2817,0.2809,0.2696,0.2675,0.2747,0.2811,0.2676,0.2105,0.2101,0.2097,0.2094,0,0,0.3115,0.3103,0.3096,0.3009,0.3024,0.2924,0.2897,0.283,0.2862,0.2777,0.273,0.2938,0.3015,0.2539,0.2472,0.2244,0.248,0.2151,0.3094,0.3146,0.3205,0.3359,0.3234,0,0,0,0,0]},{"header":{"parameterUnit":"m.s-1","parameterCategory":2,"la1":30.2991,"la2":30.254,"lo1":-89.0895,"lo2":-89.0444,"dy":0.0017,"dx":0.0017,"nx":28,"ny":28,"refTime":"2025-07-09T03:00:00:Z","depth":"2","parameterNumber":3,"parameterNumberName":"V-component_of_CURRENTS"},"data":[0,0,0,0,0,0,0,0,0,0,0,0,0,0,0,0,0,0,0,0,0,0,0,0,0,0,0,0,0,0,0,0,0,0,0,0,0,0,0,0,0,0,0,0,0,0,0,0,0,0,0,0,0,0,0,0,0,0,0.0106,0.0106,0,0.0061,0.006,0.006,0.0025,0.0025,0.0024,0.0024,-0.0019,-0.002,-0.0021,0,0,0,0,0,0,0,0,0,0,0,0,0,0.0138,0.0138,0.0106,0.0106,0.0105,0.0061,0.006,0.006,0.0025,0.0025,0.0024,0.0024,-0.0019,-0.002,-0.0021,0,0,0,0,0,0,0,0,0,0,0,0,0,0.0112,0.0138,0.0106,0.0083,0.008,0.0061,0.006,0.0059,0.0025,0.0025,0.0024,0.0024,-0.0018,-0.002,-0.0021,-0.002,0,0,-0.0025,-0.0025,0,0,0,0,0,0,0,0,0.0113,0.0111,0.0087,0.0084,0.0081,0.0048,0.0056,0.0033,0.0025,0.0046,0.0024,0.0024,0.0004,0.0001,-0.0007,-0.0022,-0.0024,-0.0025,-0.0026,-0.0026,-0.0027,0,0,0,0,0,0,0,0.0115,0.0112,0.0088,0.0086,0.0083,0.0066,0.0062,0.0051,0.0028,0.0044,0.0041,0.0037,0.0003,-0.0005,-0.0008,-0.0024,-0.0025,-0.0026,-0.0027,-0.0027,-0.0026,-0.0025,0,0,0,0,0,0,0.0123,0.0114,0.0089,0.0087,0.0097,0.0066,0.0061,0.0059,0.0028,0.0023,0.0037,0.0035,-0.0003,-0.0007,-0.001,0.0024,-0.0026,-0.0027,-0.0028,-0.0027,-0.0026,-0.0025,0,0,0,0,0,0,0.0124,0.0121,0.0091,0.0099,0.0094,0.0066,0.0064,0.0059,0.0052,0.0023,0.0018,0.0037,-0.0004,-0.0008,-0.0011,0.0021,-0.0028,-0.0029,-0.0028,-0.0026,-0.0025,0.007,0,0,0,0,0,0,0.0125,0.0122,0.0125,0.01,0.0094,0.0091,0.0064,0.0058,0.005,0.0047,0.0021,0.0016,-0.0004,-0.0009,-0.0012,0.0018,-0.003,-0.0029,-0.0027,-0.0026,0.0066,0.0074,0.0081,0,0,0,0,0,0.0127,0.0138,0.0125,0.0122,0.0099,0.0092,0.0088,0.0065,0.0051,0.0056,0.0037,0.0017,-0.0002,-0.0009,-0.0014,0.0017,-0.0029,-0.0027,-0.0026,0.0062,0.0072,0.0081,0,0,0,0,0,0,0.0155,0.0134,0.0121,0.0125,0.0113,0.0086,0.0089,0.0071,0.0059,0.0058,0.0026,0.0021,0.0029,0.0006,-0.0001,0.002,-0.0018,-0.0017,0.005,0.0059,0.0067,0.011,-0.0031,0,0,0,0,0,0.0162,0.0164,0.0141,0.0146,0.0141,0.0115,0.0109,0.0096,0.0081,0.0074,0.0056,0.0039,0.0033,0.0033,0.0018,0.0032,0.0007,0.0048,0.0056,0.0063,0.0094,0.0079,0.0089,-0.0019,-0.0019,-0.0019,0,0,0.0173,0.0163,0.0163,0.0152,0.0139,0.0155,0.0111,0.011,0.013,0.0073,0.0092,0.0064,0.004,0.0056,0.0058,0.0043,0.0074,0.0065,0.0072,0.01,0.0082,0.0093,0.0103,-0.0017,-0.0018,-0.0018,0,0,0.0207,0.0189,0.0206,0.0205,0.0194,0.0184,0.0187,0.0168,0.0164,0.0171,0.014,0.0141,0.0118,0.0124,0.012,0.0164,0.0112,0.0144,0.0228,0.0213,0.0223,0.0231,0.0189,0.0192,0.0154,0.0155,0.0155,0,0.0223,0.0245,0.0211,0.0235,0.025,0.0204,0.0242,0.0231,0.0215,0.0232,0.0191,0.019,0.0163,0.0207,0.0217,0.0188,0.0151,0.0196,0.0226,0.0233,0.024,0.0195,0.0198,0.0159,0.0159,0.0158,0.0158,0,0.0275,0.0297,0.0309,0.0329,0.0338,0.0361,0.0349,0.0357,0.034,0.0336,0.0359,0.0317,0.0328,0.0309,0.0276,0.0318,0.0265,0.0233,0.0207,0.0257,0.0205,0.0206,0.0166,0.0164,0.0163,0.0162,0,0,0.0311,0.0342,0.0349,0.0391,0.0396,0.042,0.0451,0.0484,0.0531,0.0493,0.0551,0.0524,0.0498,0.0492,0.0447,0.0432,0.0429,0.0357,0.0353,0.0325,0.0368,0.0316,0.031,0.0391,0.0392,0.0393,0.0305,0,0.037,0.0445,0.0443,0.0531,0.0576,0.0564,0.0608,0.0629,0.063,0.0669,0.0629,0.0658,0.0567,0.0579,0.0548,0.0467,0.044,0.0455,0.0317,0.0313,0.0269,0.0314,0.0319,0.0241,0.0306,0.0306,0.0306,0,0.0431,0.048,0.0571,0.066,0.068,0.0721,0.0806,0.0845,0.0873,0.0874,0.0881,0.0838,0.0829,0.0734,0.0627,0.0632,0.0518,0.0436,0.043,0.0359,0.0265,0.0205,0.024,0.0307,0.0307,0.0307,0.0307,0,0.0491,0.0579,0.0664,0.0691,0.0768,0.0818,0.0866,0.0912,0.0994,0.1017,0.1065,0.1011,0.1005,0.087,0.0678,0.0658,0.0529,0.0483,0.0326,0.0319,0.0291,0.028,0.0413,0.0413,0.0413,0.0413,0.0414,0,0.0564,0.0635,0.0703,0.075,0.0884,0.0904,0.1041,0.1074,0.1162,0.1271,0.1185,0.1228,0.1037,0.0927,0.0736,0.0531,0.057,0.0362,0.0309,0.0319,0.0312,0.0348,0.0341,0.041,0.0411,0.0411,0.0412,0,0.0617,0.0652,0.0768,0.0867,0.0913,0.1013,0.1176,0.1277,0.1327,0.1463,0.1485,0.1418,0.126,0.1036,0.0806,0.0622,0.0423,0.0331,0.0338,0.0289,0.0207,0.0206,0.0184,0.0181,0.0179,0.0178,0.0176,0,0.0652,0.0709,0.0856,0.0949,0.1001,0.1147,0.1254,0.1356,0.1474,0.1568,0.1641,0.1537,0.1461,0.1091,0.0754,0.0429,0.0386,0.0211,0.0195,0.0241,0.0191,0.0194,0.0196,0.0175,0.0174,0.0173,0.0172,0,0.0728,0.0771,0.0871,0.1052,0.1183,0.1345,0.15,0.1621,0.1733,0.1827,0.1884,0.1833,0.1481,0.1137,0.0685,0.0458,0.0268,0.018,0.0246,0.0234,0.0227,0.0179,0.0183,0.0163,0.0164,0.0164,0.0165,0.0165,0.079,0.0874,0.1,0.1178,0.1336,0.1512,0.164,0.1788,0.1964,0.2093,0.2035,0.1944,0.1572,0.0989,0.0593,0.0185,0.0225,0.0073,0.0079,0.0086,0.0103,0.0093,0.0005,0.0005,0.0005,0.0005,0.0005,0,0.0874,0.0963,0.1123,0.1322,0.1487,0.1563,0.1788,0.19,0.2066,0.2159,0.219,0.1813,0.1431,0.1003,0.0402,0.0055,0.0036,-0.0072,-0.0015,-0.0004,0.0006,0.0021,-0.01,-0.0101,-0.0102,-0.0104,0,0,0.0922,0.1069,0.1141,0.1406,0.1548,0.176,0.1882,0.2031,0.2139,0.2198,0.2153,0.207,0.1551,0.1096,0.0608,0.0255,0.021,0.0179,0.03,0.0436,0.045,0.0121,0.0161,0,0,0,0,0]}],[{"header":{"parameterUnit":"m.s-1","parameterCategory":2,"la1":30.2991,"la2":30.254,"lo1":-89.0895,"lo2":-89.0444,"dy":0.0017,"dx":0.0017,"nx":28,"ny":28,"refTime":"2025-07-09T03:00:00:Z","depth":"4","parameterNumber":2,"parameterNumberName":"U-component_of_CURRENTS"},"data":[0,0,0,0,0,0,0,0,0,0,0,0,0,0,0,0,0,0,0,0,0,0,0,0,0,0,0,0,0,0,0,0,0,0,0,0,0,0,0,0,0,0,0,0,0,0,0,0,0,0,0,0,0,0,0,0,0,0,0.2187,0.2188,0,0.2211,0.2211,0.2211,0.2248,0.225,0.2251,0.2252,0.2281,0.2281,0.228,0,0,0,0,0,0,0,0,0,0,0,0,0,0.2122,0.2123,0.2187,0.2188,0.2189,0.2211,0.2211,0.2211,0.2248,0.225,0.2251,0.2253,0.2281,0.2281,0.228,0,0,0,0,0,0,0,0,0,0,0,0,0,0.2142,0.2123,0.2187,0.2215,0.2218,0.2212,0.2211,0.2211,0.2248,0.225,0.2252,0.2253,0.2281,0.2281,0.228,0.2238,0,0,0.2278,0.2278,0,0,0,0,0,0,0,0,0.2141,0.2144,0.221,0.2213,0.2217,0.2235,0.2199,0.2222,0.2247,0.223,0.2252,0.2254,0.2269,0.2269,0.226,0.2239,0.224,0.2278,0.2278,0.2277,0.2277,0,0,0,0,0,0,0,0.214,0.2143,0.219,0.2211,0.2215,0.221,0.2214,0.2203,0.2233,0.2231,0.2236,0.2248,0.227,0.226,0.2261,0.2241,0.2278,0.2277,0.2277,0.2277,0.2316,0.2317,0,0,0,0,0,0,0.2151,0.2142,0.2189,0.2192,0.2191,0.221,0.2215,0.2222,0.2233,0.2239,0.2247,0.225,0.2261,0.2262,0.2262,0.2343,0.2277,0.2277,0.2276,0.2315,0.2316,0.2318,0,0,0,0,0,0,0.2149,0.2154,0.2189,0.2173,0.2178,0.221,0.2217,0.2221,0.2264,0.2246,0.2251,0.2292,0.2262,0.2263,0.229,0.234,0.2277,0.2276,0.2313,0.2315,0.2317,0.242,0,0,0,0,0,0,0.2147,0.2153,0.2181,0.2173,0.2179,0.2215,0.2216,0.2221,0.2269,0.2274,0.2285,0.2287,0.2264,0.2291,0.229,0.2338,0.2275,0.2311,0.2314,0.2316,0.2415,0.2426,0.2435,0,0,0,0,0,0.2144,0.2169,0.2182,0.219,0.221,0.2217,0.2219,0.2243,0.227,0.2288,0.2299,0.2289,0.2307,0.2291,0.2289,0.2338,0.231,0.2313,0.2316,0.2411,0.2424,0.2435,0,0,0,0,0,0,0.2156,0.2175,0.219,0.2221,0.2235,0.2226,0.2257,0.2271,0.2292,0.2313,0.2298,0.23,0.2345,0.2321,0.2304,0.2356,0.231,0.2313,0.2383,0.2395,0.2405,0.2432,0.2275,0,0,0,0,0,0.2171,0.2198,0.2207,0.2238,0.2251,0.2263,0.228,0.2294,0.2305,0.2319,0.2325,0.2334,0.2344,0.2357,0.2353,0.2375,0.2379,0.2407,0.2417,0.2425,0.2446,0.251,0.2528,0.2328,0.2328,0.2328,0,0,0.2186,0.2202,0.222,0.2244,0.2259,0.2262,0.2278,0.2315,0.2322,0.2316,0.2346,0.237,0.2358,0.2388,0.2407,0.2383,0.2478,0.2429,0.2437,0.2453,0.2515,0.2535,0.2553,0.233,0.233,0.233,0,0,0.2205,0.2244,0.2264,0.2272,0.2307,0.2304,0.2328,0.2345,0.2367,0.2388,0.24,0.2464,0.2452,0.2475,0.2477,0.2539,0.253,0.254,0.2613,0.2675,0.2693,0.2709,0.2718,0.2734,0.2543,0.2544,0.2544,0,0.2227,0.2238,0.2272,0.228,0.2292,0.2327,0.2334,0.2347,0.2372,0.2405,0.2412,0.2492,0.2493,0.2558,0.2587,0.2566,0.2582,0.2571,0.2692,0.2707,0.2722,0.2727,0.2744,0.2549,0.2548,0.2548,0.2547,0,0.2232,0.2253,0.2267,0.2283,0.2304,0.2318,0.2337,0.2376,0.2417,0.244,0.2539,0.2569,0.2627,0.2644,0.2633,0.2747,0.2717,0.27,0.2667,0.2749,0.2748,0.2763,0.2557,0.2555,0.2553,0.2552,0,0,0.2233,0.2264,0.2271,0.2281,0.2305,0.2322,0.2352,0.2393,0.2456,0.251,0.2597,0.2663,0.2738,0.2749,0.2781,0.2848,0.296,0.2832,0.2832,0.285,0.3075,0.2877,0.2873,0.2977,0.298,0.2983,0.3026,0,0.2223,0.2233,0.2257,0.2272,0.2272,0.232,0.2355,0.2412,0.2474,0.2564,0.2653,0.2749,0.2755,0.2836,0.2903,0.2953,0.3009,0.2948,0.2985,0.2985,0.2809,0.2887,0.2995,0.3037,0.304,0.3043,0.3045,0,0.2201,0.2209,0.2225,0.2273,0.2289,0.2323,0.2421,0.2461,0.2583,0.2647,0.2773,0.2841,0.2973,0.2968,0.31,0.3066,0.3087,0.3113,0.3114,0.2908,0.2816,0.2943,0.3071,0.3069,0.3067,0.3065,0.3064,0,0.2159,0.2187,0.2208,0.2214,0.2275,0.2333,0.2394,0.2509,0.2567,0.2738,0.2821,0.296,0.3071,0.3131,0.3188,0.3163,0.331,0.3262,0.3095,0.3079,0.32,0.3183,0.3357,0.3357,0.3356,0.3356,0.3356,0,0.2105,0.2124,0.2206,0.221,0.227,0.2345,0.2451,0.2532,0.2672,0.2755,0.2895,0.2986,0.3132,0.3216,0.3228,0.3204,0.3337,0.3125,0.3093,0.3235,0.3222,0.3209,0.3191,0.3358,0.3357,0.3357,0.3357,0,0.2036,0.2089,0.2112,0.2203,0.2247,0.2305,0.2451,0.2523,0.2685,0.28,0.2866,0.3042,0.3149,0.3237,0.3345,0.3245,0.3246,0.3205,0.3346,0.3318,0.2954,0.2941,0.2995,0.2989,0.2984,0.2979,0.2976,0,0.1993,0.2001,0.2096,0.2122,0.2171,0.2274,0.2345,0.2509,0.2572,0.28,0.2834,0.3019,0.3108,0.3093,0.3198,0.3191,0.3163,0.3123,0.3043,0.2961,0.2926,0.2921,0.2916,0.2967,0.2966,0.2964,0.2963,0,0.1897,0.196,0.1976,0.2034,0.2111,0.2173,0.2286,0.2313,0.2506,0.2669,0.2745,0.2802,0.2915,0.2972,0.3007,0.2995,0.3122,0.3066,0.3076,0.3,0.2928,0.2896,0.2897,0.2944,0.2947,0.2949,0.295,0,0.1836,0.1827,0.1882,0.1912,0.2002,0.2043,0.2116,0.2192,0.2283,0.2514,0.2535,0.2724,0.2892,0.2871,0.2895,0.2878,0.2818,0.2708,0.2735,0.2756,0.2658,0.2529,0.2413,0,0,0,0,0,0.1759,0.1743,0.1755,0.1782,0.1865,0.1928,0.2059,0.2139,0.232,0.2309,0.2409,0.2494,0.255,0.2646,0.2576,0.2772,0.2824,0.2677,0.271,0.2842,0.2863,0.2769,0,0,0,0,0,0,0.1709,0.1728,0.1707,0.1679,0.1678,0.1768,0.185,0.1968,0.1965,0.2152,0.2202,0.2337,0.2434,0.2568,0.253,0.2552,0.2518,0.2783,0.2776,0.283,0.2849,0.2866,0.2777,0,0,0,0,0]},{"header":{"parameterUnit":"m.s-1","parameterCategory":2,"la1":30.2991,"la2":30.254,"lo1":-89.0895,"lo2":-89.0444,"dy":0.0017,"dx":0.0017,"nx":28,"ny":28,"refTime":"2025-07-09T03:00:00:Z","depth":"4","parameterNumber":3,"parameterNumberName":"V-component_of_CURRENTS"},"data":[0,0,0,0,0,0,0,0,0,0,0,0,0,0,0,0,0,0,0,0,0,0,0,0,0,0,0,0,0,0,0,0,0,0,0,0,0,0,0,0,0,0,0,0,0,0,0,0,0,0,0,0,0,0,0,0,0,0,0.0045,0.0045,0,0.0016,0.0016,0.0016,-0.0008,-0.0008,-0.0009,-0.0009,-0.0025,-0.0025,-0.0025,0,0,0,0,0,0,0,0,0,0,0,0,0,0.0067,0.0066,0.0045,0.0045,0.0045,0.0016,0.0016,0.0016,-0.0008,-0.0008,-0.0009,-0.0009,-0.0025,-0.0025,-0.0025,0,0,0,0,0,0,0,0,0,0,0,0,0,0.005,0.0066,0.0045,0.0029,0.0028,0.0017,0.0016,0.0016,-0.0008,-0.0008,-0.0009,-0.0009,-0.0025,-0.0025,-0.0025,-0.0019,0,0,-0.0026,-0.0026,0,0,0,0,0,0,0,0,0.0051,0.0049,0.0032,0.003,0.0028,0.0007,0.0018,0.0005,-0.0008,0.0006,-0.0009,-0.0009,-0.0013,-0.0014,-0.0019,-0.002,-0.0021,-0.0026,-0.0026,-0.0026,-0.0026,0,0,0,0,0,0,0,0.0052,0.005,0.0034,0.0032,0.003,0.0019,0.0016,0.0015,-0.0001,0.0004,0.0003,-0.0001,-0.0014,-0.0018,-0.0019,-0.0021,-0.0026,-0.0026,-0.0026,-0.0027,-0.0013,-0.0013,0,0,0,0,0,0,0.0056,0.0051,0.0035,0.0033,0.0039,0.0019,0.0016,0.0015,-0.0001,-0.0004,-0.0,-0.0002,-0.0018,-0.0019,-0.002,0.0007,-0.0026,-0.0027,-0.0027,-0.0014,-0.0013,-0.0013,0,0,0,0,0,0,0.0057,0.0055,0.0036,0.0041,0.0038,0.0019,0.0018,0.0014,0.0011,-0.0005,-0.0007,-0.0,-0.0018,-0.0019,-0.0015,0.0005,-0.0027,-0.0027,-0.0014,-0.0014,-0.0013,0.0047,0,0,0,0,0,0,0.0058,0.0056,0.0059,0.0042,0.0038,0.0038,0.0018,0.0014,0.0009,0.0007,-0.0005,-0.0007,-0.0018,-0.0014,-0.0015,0.0004,-0.0027,-0.0015,-0.0014,-0.0013,0.0045,0.005,0.0055,0,0,0,0,0,0.0059,0.0067,0.0059,0.0057,0.0042,0.0038,0.0036,0.0021,0.001,0.0015,0.0005,-0.0007,-0.0009,-0.0014,-0.0015,0.0005,-0.0016,-0.0014,-0.0013,0.0043,0.0049,0.0055,0,0,0,0,0,0,0.0078,0.0065,0.0056,0.0059,0.0052,0.0034,0.0037,0.0025,0.002,0.0019,0.0002,-0.0,0.0009,-0.0003,-0.0008,0.001,-0.0015,-0.0014,0.0028,0.0034,0.0039,0.0048,-0.0027,0,0,0,0,0,0.0084,0.0086,0.0071,0.0075,0.0072,0.0055,0.0051,0.0043,0.0034,0.0031,0.0023,0.0015,0.0013,0.0016,0.0009,0.0024,-0.0009,0.0034,0.0039,0.0043,0.0049,0.0007,0.0008,-0.0009,-0.0009,-0.0009,0,0,0.0092,0.0086,0.0086,0.008,0.0071,0.0084,0.0052,0.0053,0.0066,0.0032,0.0048,0.0032,0.0019,0.0032,0.0036,0.0027,0.0032,0.0045,0.0049,0.0052,0.0008,0.001,0.0011,-0.0008,-0.0008,-0.0008,0,0,0.0117,0.0105,0.0118,0.0118,0.0111,0.0105,0.0107,0.0095,0.0091,0.0101,0.008,0.0075,0.0074,0.007,0.0067,0.0096,0.0056,0.0094,0.0134,0.0093,0.0094,0.0095,0.006,0.0056,0.0101,0.0101,0.0101,0,0.0128,0.0145,0.0122,0.0139,0.0151,0.0119,0.0147,0.0138,0.0131,0.0134,0.0115,0.0108,0.0093,0.0111,0.0119,0.0109,0.0077,0.0115,0.01,0.0099,0.0099,0.0063,0.0058,0.0104,0.0104,0.0104,0.0103,0,0.0165,0.0182,0.0191,0.0206,0.0215,0.0232,0.0222,0.0225,0.0214,0.0203,0.0208,0.0181,0.0179,0.0171,0.0155,0.0154,0.013,0.0107,0.0085,0.0104,0.0065,0.0059,0.0109,0.0107,0.0107,0.0106,0,0,0.0188,0.0214,0.0219,0.0249,0.0256,0.0274,0.0291,0.0304,0.0319,0.0294,0.0314,0.0294,0.0266,0.0261,0.0235,0.02,0.0166,0.0157,0.0153,0.0125,0.0076,0.0076,0.007,0.0135,0.0135,0.0134,0.0051,0,0.0229,0.0283,0.0285,0.0349,0.038,0.0371,0.0395,0.0399,0.0387,0.0392,0.035,0.0356,0.0305,0.0309,0.0263,0.019,0.0153,0.019,0.006,0.0056,0.0056,0.0064,0.0132,0.0047,0.0046,0.0045,0.0044,0,0.027,0.0306,0.0373,0.0433,0.0447,0.048,0.052,0.0541,0.0525,0.0514,0.0494,0.0452,0.0414,0.0362,0.0239,0.0263,0.0179,0.0111,0.0106,0.0082,0.0047,0.0022,0.0033,0.0034,0.0035,0.0035,0.0036,0,0.0308,0.0373,0.0436,0.0456,0.0508,0.0543,0.0575,0.0579,0.0608,0.0596,0.0602,0.0534,0.0517,0.0391,0.025,0.0241,0.0102,0.0071,-0.0006,-0.0007,-0.0011,-0.0011,-0.0016,-0.0016,-0.0016,-0.0016,-0.0015,0,0.0354,0.0407,0.0463,0.0497,0.0587,0.0604,0.0684,0.0691,0.0709,0.0748,0.0676,0.0682,0.052,0.042,0.0274,0.0121,0.0118,0.0003,-0.0027,0.0017,0.0021,-0.0015,-0.0014,-0.0019,-0.0018,-0.0017,-0.0017,0,0.0385,0.0416,0.0499,0.0572,0.0607,0.0675,0.0771,0.0819,0.0819,0.0865,0.0867,0.0793,0.0666,0.0491,0.0296,0.0173,0.0013,-0.0039,0.0032,0.0006,-0.0078,-0.0073,-0.0137,-0.0138,-0.0139,-0.0139,-0.0139,0,0.0404,0.0446,0.0557,0.0618,0.066,0.0762,0.0833,0.0877,0.0926,0.0932,0.0956,0.0861,0.0785,0.0526,0.0325,0.0054,0.0014,-0.0075,-0.0089,-0.0066,-0.009,-0.0084,-0.0078,-0.014,-0.014,-0.014,-0.0141,0,0.0444,0.0481,0.0549,0.0673,0.0769,0.0881,0.0978,0.1021,0.1063,0.106,0.1041,0.0904,0.0769,0.0552,0.0348,0.0147,-0.0026,-0.0081,-0.0082,-0.0096,-0.0071,-0.0092,-0.0086,-0.0143,-0.0142,-0.0142,-0.0142,0,0.0475,0.0527,0.0616,0.0731,0.085,0.0963,0.1018,0.1083,0.1133,0.1122,0.1118,0.0961,0.0873,0.0601,0.0407,0.0215,0.0155,0.0076,0.0066,0.0065,0.0141,0.0204,0.0195,0,0,0,0,0,0.0506,0.0566,0.0667,0.0793,0.091,0.0986,0.1097,0.1136,0.117,0.1171,0.1145,0.1017,0.0747,0.0641,0.0451,0.0371,0.0103,0.0138,0.0004,-0.0153,-0.0151,-0.0098,0,0,0,0,0,0,0.0526,0.0618,0.0667,0.0824,0.0913,0.1053,0.113,0.1157,0.116,0.1156,0.1032,0.0953,0.0705,0.0857,0.0444,0.0385,0.0269,0.0012,0.0008,-0.0154,-0.0152,-0.015,-0.0096,0,0,0,0,0]}]]